Date String (YYYY-MM-DD hh:mm:ss) UTC,Instrument flags,absolute air pressure of the measurement (hPa),sample flow rate (lpm),inlet stack bypass flow (lpm),air temperature of the measurement (°C),ambient temperature measured by the external sensor (°C),aerosol sample conditioner tube jacket temperature (°C),OPC LED temperature (°C),internal box temperature (°C),relative humidity of the measurement (%),span deviation,mass concentration of particles derived from Lorenz-Mie calculation of OPC scattering (μg/m³),mass concentration of particles derived from Lorenz-Mie calculation of OPC scattering (μg/m³),mass concentration of particles derived from Lorenz-Mie calculation of OPC scattering (μg/m³)
DateTimeUTC,F1_M11,P_M11,Q1_M11,Q2_M11,T1_M11,T2_M11,T3_M11,T4_M11,T5_M11,U1_M11,ZSPAN_M11,X0_M11,X2_M11,X1_M11
2023-07-31 05:00:00,SystemResetWarning,0833.4,5.01,000.00,028.8,026.2,000.0,037.1,030.3,32.0,0000.0,0011.36,0005.09,0004.35
2023-07-31 05:01:00,SystemResetWarning,0833.4,5.00,000.00,028.8,026.6,000.0,037.2,030.4,31.9,0000.0,0012.50,0005.18,0004.41
2023-07-31 05:02:00,SystemResetWarning,0833.3,5.00,000.00,028.8,026.9,000.0,037.2,030.5,31.8,0000.0,0012.75,0005.25,0004.47
2023-07-31 05:03:00,SystemResetWarning,0833.3,5.01,000.00,028.9,027.2,000.0,037.2,030.6,31.6,0000.0,0013.12,0005.37,0004.54
2023-07-31 05:04:00,SystemResetWarning,0833.2,5.00,000.00,028.9,027.5,000.0,037.3,030.6,30.5,0000.0,0013.06,0005.48,0004.59
2023-07-31 05:05:00,SystemResetWarning,0833.3,5.00,000.00,029.0,027.7,000.0,037.3,030.7,30.2,0000.0,0013.11,0005.50,0004.64
2023-07-31 05:06:00,SystemResetWarning,0833.2,4.99,000.00,029.0,027.2,000.0,037.2,030.7,30.4,0000.0,0013.48,0005.51,0004.66
2023-07-31 05:07:00,SystemResetWarning,0833.2,5.00,000.00,029.0,025.5,000.0,037.1,030.4,30.5,0000.0,0013.10,0005.51,0004.68
2023-07-31 05:08:00,SystemResetWarning,0833.2,5.01,000.00,028.9,024.6,000.0,037.0,030.2,31.2,0000.0,0013.49,0005.52,0004.69
2023-07-31 05:09:00,SystemResetWarning,0833.2,5.00,000.00,028.8,024.7,000.0,037.0,030.0,31.4,0000.0,0013.14,0005.52,0004.69
2023-07-31 05:10:00,SystemResetWarning,0833.2,4.99,000.00,028.7,025.1,000.0,037.1,030.0,31.8,0000.0,0012.86,0005.55,0004.70
2023-07-31 05:11:00,SystemResetWarning,0833.2,5.00,000.00,028.7,025.6,000.0,037.1,030.1,32.1,0000.0,0012.97,0005.53,0004.69
2023-07-31 05:12:00,SystemResetWarning,0833.2,5.01,000.00,028.7,026.0,000.0,037.1,030.2,32.2,0000.0,0012.17,0005.56,0004.70
2023-07-31 05:13:00,SystemResetWarning,0833.2,5.00,000.00,028.7,026.5,000.0,037.1,030.3,32.0,0000.0,0013.31,0005.60,0004.71
2023-07-31 05:14:00,SystemResetWarning,0833.2,5.00,000.00,028.7,026.8,000.0,037.1,030.4,31.9,0000.0,0014.40,0005.57,0004.71
2023-07-31 05:15:00,SystemResetWarning,0833.2,4.99,000.00,028.8,027.1,000.0,037.2,030.5,31.8,0000.0,0013.88,0005.52,0004.70
2023-07-31 05:16:00,SystemResetWarning,0833.2,4.99,000.00,028.8,027.4,000.0,037.2,030.5,31.8,0000.0,0014.30,0005.53,0004.69
2023-07-31 05:17:00,SystemResetWarning,0833.2,5.00,000.00,028.9,027.6,000.0,037.2,030.6,31.6,0000.0,0014.81,0005.60,0004.68
2023-07-31 05:18:00,SystemResetWarning,0833.2,5.01,000.00,028.9,027.8,000.0,037.2,030.7,31.5,0000.0,0015.05,0005.65,0004.67
2023-07-31 05:19:00,SystemResetWarning,0833.3,4.99,000.00,029.0,027.7,000.0,037.2,030.7,31.4,0000.0,0014.53,0005.68,0004.66
2023-07-31 05:20:00,SystemResetWarning,0833.3,4.98,000.00,028.9,026.1,000.0,037.1,030.5,31.4,0000.0,0014.51,0005.67,0004.64
2023-07-31 05:21:00,SystemResetWarning,0833.3,5.03,000.00,028.9,024.8,000.0,037.0,030.2,31.5,0000.0,0014.00,0005.61,0004.63
2023-07-31 05:22:00,SystemResetWarning,0833.2,5.00,000.00,028.8,024.7,000.0,037.0,030.1,31.7,0000.0,0013.90,0005.58,0004.62
2023-07-31 05:23:00,SystemResetWarning,0833.2,5.00,000.00,028.7,025.0,000.0,037.0,030.0,31.8,0000.0,0013.82,0005.52,0004.58
2023-07-31 05:24:00,SystemResetWarning,0833.2,5.00,000.00,028.7,025.5,000.0,037.1,030.1,32.0,0000.0,0012.71,0005.44,0004.55
2023-07-31 05:25:00,SystemResetWarning,0833.2,5.00,000.00,028.7,025.9,000.0,037.1,030.2,32.1,0000.0,0011.41,0005.41,0004.52
2023-07-31 05:26:00,SystemResetWarning,0833.2,5.00,000.00,028.7,026.4,000.0,037.1,030.2,32.2,0000.0,0011.74,0005.44,0004.51
2023-07-31 05:27:00,SystemResetWarning,0833.2,5.01,000.00,028.7,026.7,000.0,037.1,030.3,32.4,0000.0,0011.76,0005.41,0004.49
2023-07-31 05:28:00,SystemResetWarning,0833.2,5.01,000.00,028.7,027.0,000.0,037.1,030.4,32.5,0000.0,0010.72,0005.33,0004.47
2023-07-31 05:29:00,SystemResetWarning,0833.2,4.99,000.00,028.8,027.3,000.0,037.1,030.5,32.8,0000.0,0010.87,0005.28,0004.46
2023-07-31 05:30:00,SystemResetWarning,0833.3,4.99,000.00,028.8,027.5,000.0,037.2,030.6,32.8,0000.0,0011.31,0005.22,0004.46
2023-07-31 05:31:00,SystemResetWarning,0833.3,5.00,000.00,028.9,027.7,000.0,037.2,030.6,32.4,0000.0,0011.58,0005.22,0004.46
2023-07-31 05:32:00,SystemResetWarning,0833.3,5.00,000.00,028.9,027.9,000.0,037.2,030.7,31.3,0000.0,0011.74,0005.24,0004.45
2023-07-31 05:33:00,SystemResetWarning,0833.3,5.00,000.00,029.0,027.6,000.0,037.2,030.7,30.7,0000.0,0011.72,0005.26,0004.45
2023-07-31 05:34:00,SystemResetWarning,0833.3,5.01,000.00,028.9,026.0,000.0,037.1,030.5,30.7,0000.0,0011.95,0005.25,0004.46
2023-07-31 05:35:00,SystemResetWarning,0833.3,5.01,000.00,028.9,025.5,000.0,037.0,030.3,30.8,0000.0,0011.75,0005.22,0004.48
2023-07-31 05:36:00,SystemResetWarning,0833.3,5.01,000.00,028.8,025.6,000.0,037.1,030.2,30.8,0000.0,0012.29,0005.22,0004.49
2023-07-31 05:37:00,SystemResetWarning,0833.3,5.00,000.00,028.8,026.0,000.0,037.1,030.2,30.7,0000.0,0012.57,0005.20,0004.49
2023-07-31 05:38:00,SystemResetWarning,0833.3,4.99,000.00,028.8,026.4,000.0,037.2,030.3,30.7,0000.0,0012.66,0005.20,0004.48
2023-07-31 05:39:00,SystemResetWarning,0833.4,5.00,000.00,028.8,026.7,000.0,037.2,030.4,30.7,0000.0,0013.32,0005.21,0004.49
2023-07-31 05:40:00,SystemResetWarning,0833.3,5.01,000.00,028.9,027.0,000.0,037.2,030.5,30.6,0000.0,0013.95,0005.21,0004.48
2023-07-31 05:41:00,SystemResetWarning,0833.4,5.01,000.00,028.9,027.3,000.0,037.2,030.6,30.5,0000.0,0013.67,0005.21,0004.48
2023-07-31 05:42:00,SystemResetWarning,0833.4,5.00,000.00,028.9,027.5,000.0,037.2,030.7,30.3,0000.0,0013.45,0005.18,0004.47
2023-07-31 05:43:00,SystemResetWarning,0833.3,5.00,000.00,029.0,027.7,000.0,037.3,030.7,30.1,0000.0,0013.86,0005.17,0004.47
2023-07-31 05:44:00,SystemResetWarning,0833.3,5.00,000.00,029.0,027.7,000.0,037.3,030.7,29.9,0000.0,0014.32,0005.19,0004.46
2023-07-31 05:45:00,SystemResetWarning,0833.3,4.98,000.00,029.0,026.3,000.0,037.2,030.5,30.4,0000.0,0014.07,0005.21,0004.46
2023-07-31 05:46:00,SystemResetWarning,0833.3,5.03,000.00,028.9,025.5,000.0,037.1,030.4,30.0,0000.0,0014.11,0005.22,0004.48
2023-07-31 05:47:00,SystemResetWarning,0833.3,4.99,000.00,028.9,025.6,000.0,037.1,030.2,29.9,0000.0,0013.78,0005.24,0004.48
2023-07-31 05:48:00,SystemResetWarning,0833.3,4.99,000.00,028.8,025.9,000.0,037.2,030.3,30.1,0000.0,0013.24,0005.29,0004.52
2023-07-31 05:49:00,SystemResetWarning,0833.3,5.00,000.00,028.8,026.3,000.0,037.2,030.3,31.0,0000.0,0012.99,0005.34,0004.56
2023-07-31 05:50:00,SystemResetWarning,0833.3,5.01,000.00,028.9,026.7,000.0,037.2,030.4,30.7,0000.0,0012.59,0005.38,0004.57
2023-07-31 05:51:00,SystemResetWarning,0833.3,5.00,000.00,028.9,027.0,000.0,037.3,030.5,30.6,0000.0,0011.61,0005.33,0004.54
2023-07-31 05:52:00,SystemResetWarning,0833.3,4.99,000.00,028.9,027.3,000.0,037.3,030.6,30.5,0000.0,0011.33,0005.31,0004.52
2023-07-31 05:53:00,SystemResetWarning,0833.3,4.99,000.00,029.0,027.5,000.0,037.3,030.7,30.4,0000.0,0011.23,0005.27,0004.50
2023-07-31 05:54:00,SystemResetWarning,0833.3,5.00,000.00,029.0,027.7,000.0,037.3,030.7,30.1,0000.0,0010.99,0005.27,0004.49
2023-07-31 05:55:00,SystemResetWarning,0833.3,4.99,000.00,029.0,027.3,000.0,037.3,030.7,30.1,0000.0,0010.51,0005.24,0004.47
2023-07-31 05:56:00,SystemResetWarning,0833.3,5.00,000.00,029.0,025.8,000.0,037.2,030.4,30.3,0000.0,0010.58,0005.23,0004.44
2023-07-31 05:57:00,SystemResetWarning,0833.2,5.01,000.00,028.9,025.4,000.0,037.1,030.3,29.8,0000.0,0010.87,0005.21,0004.40
2023-07-31 05:58:00,SystemResetWarning,0833.3,5.00,000.00,028.9,025.6,000.0,037.2,030.2,29.4,0000.0,0010.55,0005.17,0004.36
2023-07-31 05:59:00,SystemResetWarning,0833.3,4.99,000.00,028.8,026.0,000.0,037.2,030.3,29.8,0000.0,0010.38,0005.12,0004.32
